Effective Sunday, March 17, 2024, the National Weather Service National Data Buoy Center will discontinue its Dial-A-Buoy Interactive Voice Response system. For more information, see Service Change Notice 24-06 (PDF).

Station OWXO1 - Old Woman Creek, Old Woman Creek Reserve, OH Image indicating link to RSS feed of recent meteorological observations for station OWXO1


Conditions at OWXO1 as of
(4:45 pm EST)
2145 GMT on 02/24/2024:
     

Click on the graph icon in the table below to see a time series plot of the last five days of that observation.

5-day plot - Wind Direction Wind Direction (WDIR): NE ( 40 deg true )
5-day plot - Wind Speed Wind Speed (WSPD): 2.9 kts
5-day plot - Atmospheric Pressure Atmospheric Pressure (PRES):30.06 in
5-day plot - Air Temperature Air Temperature (ATMP): 26.1 °F
5-day plot - Dew Point Dew Point (DEWP): 10.8 °F
5-day plot - Wind Chill Wind Chill (CHILL): 22.1 °F
5-day plot - Wind Speed at 10 Meters Wind Speed at 10 meters (WSPD10M): 3.9 kts
5-day plot - Wind Speed at 20 Meters Wind Speed at 20 meters (WSPD20M): 3.9 kts
5-day plot -  Wind Speed, Wind Gust and Atmospheric Pressure Combined plot of Wind Speed, Gust, and Air Pressure
Previous observations
TIME
(EST)
5-day plot - Wind Direction
WDIR
 
5-day plot - Wind Speed
WSPD
kts
5-day plot - Wind Gust
GST
kts
5-day plot - Wave Height
WVHT
ft
5-day plot - Dominant Wave Period
DPD
sec
5-day plot - Average Wave Period
APD
sec
5-day plot - Mean Wave Direction
MWD
 
5-day plot - Atmospheric Pressure
PRES
in
5-day plot - Pressure Tendency
PTDY
in
5-day plot - Air Temperature
ATMP
°F
5-day plot - Water Temperature
WTMP
°F
5-day plot - Dew Point
DEWP
°F
5-day plot - Salinity
SAL
psu
5-day plot - Visibility
VIS
nmi
5-day plot - Tide (above MLLW)
TIDE
ft
2024-02-24 04:30 pm NE 4.1-----30.06- 26.2- 10.6---
2024-02-24 04:15 pmNNE 4.1-----30.06- 26.4- 9.9---
2024-02-24 04:00 pm NE 4.1-----30.06+0.06 26.4- 9.9---
2024-02-24 03:45 pm NE 5.1-----30.03- 26.4- 9.9---
2024-02-24 03:30 pmNNE 5.1-----30.03- 26.4- 10.2---
2024-02-24 03:15 pm N 5.1-----30.03- 26.8- 10.9---
2024-02-24 03:00 pmNNE 5.1-----30.03+0.03 27.0- 11.1---
2024-02-24 02:45 pmNNE 5.1-----30.03- 26.4- 10.8---
2024-02-24 02:30 pmNNE 6.0-----30.03- 26.2- 10.9---
2024-02-24 02:15 pm N 6.0-----30.03- 26.2- 11.5---
2024-02-24 02:00 pm N 6.0-----30.03+0.03 26.4- 11.1---
2024-02-24 01:45 pmNNE 5.1-----30.03- 26.1- 10.8---
2024-02-24 01:30 pmNNE 6.0-----30.03- 25.7- 10.9---
2024-02-24 01:15 pmNNE 6.0-----30.00- 25.5- 11.1---
2024-02-24 01:00 pmNNE 5.1-----30.00+0.03 25.9- 11.5---
2024-02-24 12:45 pmNNE 6.0-----30.00- 25.3- 11.3---
2024-02-24 12:30 pmNNE 6.0-----30.00- 25.2- 12.4---
2024-02-24 12:15 pmNNE 6.0-----30.00- 24.8- 11.3---
2024-02-24 12:00 pmNNE 6.0-----30.00+0.06 24.4- 11.3---
2024-02-24 11:45 amNNE 7.0-----30.00- 24.3- 12.0---
2024-02-24 11:30 amNNE 7.0-----30.00- 23.9- 12.4---
2024-02-24 11:15 amNNE 7.0-----30.00- 23.4- 12.2---
2024-02-24 11:00 am N 8.0-----30.00+0.09 23.2- 12.7---
2024-02-24 10:45 amNNE 7.0-----29.97- 22.6- 12.9---
2024-02-24 10:30 amNNE 6.0-----29.97- 23.5- 13.1---
2024-02-24 10:15 amNNE 8.0-----29.97- 22.8- 13.1---
2024-02-24 10:00 amNNE 8.0-----29.97+0.09 23.4- 12.9---
2024-02-24 09:45 amNNE 8.9-----29.94- 23.4- 12.2---
2024-02-24 09:30 amNNE 8.0-----29.94- 23.4- 11.8---
2024-02-24 09:15 amNNE 8.9-----29.94- 23.2- 11.7---
2024-02-24 09:00 amNNE 7.0-----29.94+0.09 23.5- 12.0---
2024-02-24 08:45 amNNE 8.9-----29.94- 23.2- 12.0---
2024-02-24 08:30 amNNE 7.0-----29.91- 22.8- 12.0---
2024-02-24 08:15 amNNE 8.9-----29.91- 22.6- 11.1---
2024-02-24 08:00 amNNE 8.9-----29.91+0.06 22.6- 10.8---
2024-02-24 07:45 amNNE 8.0-----29.91- 23.0- 11.1---
2024-02-24 07:30 amNNE 8.0-----29.88- 23.2- 11.7---
2024-02-24 07:15 amNNE 8.0-----29.88- 23.4- 13.3---
2024-02-24 07:00 amNNE 8.9-----29.88+0.06 23.2- 12.7---
2024-02-24 06:45 amNNE 8.9-----29.88- 23.4- 14.4---
2024-02-24 06:30 amNNE 8.9-----29.85- 23.5- 15.3---
2024-02-24 06:15 am N 8.0-----29.85- 23.7- 16.0---
2024-02-24 06:00 amNNE 8.9-----29.85+0.06 23.5- 15.4---
2024-02-24 05:45 amNNE 8.0-----29.85- 23.5- 17.4---
2024-02-24 05:30 amNNE 8.0-----29.85- 23.2- 18.0---
2024-02-24 05:15 amNNE 8.9-----29.85- 23.5- 18.0---
2024-02-24 05:00 am N 8.9-----29.85+0.06 23.9- 17.1---
2024-02-24 04:45 amNNE 8.0-----29.83- 24.1- 17.2---
2024-02-24 04:30 amNNE 8.0-----29.83- 24.1- 18.1---
2024-02-24 04:15 amNNE 7.0-----29.83- 24.1- 18.5---
2024-02-24 04:00 amNNE 7.0-----29.83+0.03 24.4- 18.3---
2024-02-24 03:45 amNNE 8.0-----29.83- 24.8- 18.7---
2024-02-24 03:30 amNNE 8.0-----29.80- 25.2- 19.0---
2024-02-24 03:15 amNNE 7.0-----29.80- 25.5- 19.9---
2024-02-24 03:00 amNNE 8.0-----29.80+0.00 25.9- 19.0---
2024-02-24 02:45 amNNE 8.0-----29.80- 26.4- 19.6---
2024-02-24 02:30 amNNE 6.0-----29.80- 26.8- 19.6---
2024-02-24 02:15 amNNE 8.0-----29.80- 27.0- 20.1---
2024-02-24 02:00 amNNE 7.0-----29.80+0.03 27.3- 20.8---
2024-02-24 01:45 amNNE 6.0-----29.80- 27.5- 22.1---
2024-02-24 01:30 amNNE 6.0-----29.80- 27.9- 22.3---
2024-02-24 01:15 am NE 7.0-----29.80- 28.0- 22.6---
2024-02-24 01:00 am NE 7.0-----29.80+0.03 28.6- 22.8---
2024-02-24 12:45 amNNE 6.0-----29.80- 28.8- 23.4---
2024-02-24 12:30 amNNE 6.0-----29.80- 28.8- 22.5---
2024-02-24 12:15 amNNE 7.0-----29.80- 28.9- 22.3---
2024-02-24 12:00 amNNE 6.0-----29.80+0.06 29.1- 22.5---
2024-02-23 11:45 pmNNE 7.0-----29.80- 29.1- 22.5---
2024-02-23 11:30 pm N 5.1-----29.80- 29.3- 23.0---
2024-02-23 11:15 pmNNE 5.1-----29.77- 29.5- 22.5---
2024-02-23 11:00 pmNNE 6.0-----29.77+0.06 29.5- 22.5---
2024-02-23 10:45 pmNNE 7.0-----29.77- 29.8- 23.2---
2024-02-23 10:30 pmNNE 6.0-----29.77- 30.2- 23.5---
2024-02-23 10:15 pmNNE 6.0-----29.77- 30.6- 24.6---
2024-02-23 10:00 pmNNE 6.0-----29.77+0.09 31.3- 25.5---
2024-02-23 09:45 pm NE 5.1-----29.74- 31.6- 26.4---
2024-02-23 09:30 pm NE 5.1-----29.74- 31.6- 26.8---
2024-02-23 09:15 pm NE 5.1-----29.74- 31.8- 27.0---
2024-02-23 09:00 pm NE 6.0-----29.74+0.09 32.2- 27.3---
2024-02-23 08:45 pmNNE 5.1-----29.74- 32.7- 27.5---
2024-02-23 08:30 pm NE 5.1-----29.74- 33.3- 28.0---
2024-02-23 08:15 pmNNE 6.0-----29.71- 33.6- 28.4---
2024-02-23 08:00 pm NE 6.0-----29.71+0.09 34.2- 29.3---
2024-02-23 07:45 pmNNE 5.1-----29.71- 34.5- 28.9---
2024-02-23 07:30 pm NE 6.0-----29.71- 34.7- 29.8---
2024-02-23 07:15 pm NE 5.1-----29.68- 35.4- 30.7---
2024-02-23 07:00 pm NE 5.1-----29.68+0.09 36.0- 31.3---
2024-02-23 06:45 pm NE 5.1-----29.68- 35.8- 32.0---
2024-02-23 06:30 pmENE 5.1-----29.65- 36.3- 32.5---
2024-02-23 06:15 pm NE 5.1-----29.65- 37.2- 32.5---
2024-02-23 06:00 pm NE 5.1-----29.65+0.06 38.5- 32.9---